• In Netherlands
  • List of Countries
  • For 7 days
  • Water Temperature
  • Satellite Maps
  • Weather Map
  • Weather Widgets
  • user-avatar
    Login

    Hourly Weather Vozhmozero

    Today, 16 July, Monday

    Time Temperature Precipitation Wind Pressure Humidity
    00:00 +19°C° 0 mm 1 mps 746 mmHg 54%
    01:00 +17°C° 0 mm 0 mps 747 mmHg 55%
    02:00 +16°C° 0 mm 0 mps 747 mmHg 58%
    03:00 +17°C° 0 mm 0 mps 747 mmHg 58%
    04:00 +20°C° 0 mm 1 mps 747 mmHg 58%
    05:00 +21°C° 0 mm 1 mps 747 mmHg 58%
    06:00 +23°C° 0 mm 1 mps 748 mmHg 53%
    07:00 +25°C° 0 mm 1 mps 748 mmHg 49%
    08:00 +27°C° 0 mm 1 mps 748 mmHg 43%
    09:00 +28°C° 0 mm 1 mps 748 mmHg 40%
    10:00 +29°C° 0 mm 2 mps 748 mmHg 36%
    11:00 +30°C° 0 mm 2 mps 748 mmHg 32%
    12:00 +30°C° 0 mm 2 mps 748 mmHg 32%
    13:00 +30°C° 0 mm 2 mps 748 mmHg 32%
    14:00 +31°C° 0 mm 1 mps 748 mmHg 32%
    15:00 +30°C° 0 mm 1 mps 748 mmHg 33%
    16:00 +30°C° 0 mm 1 mps 748 mmHg 33%
    17:00 +30°C° 0 mm 1 mps 748 mmHg 34%
    18:00 +28°C° 0 mm 1 mps 748 mmHg 40%
    19:00 +26°C° 0 mm 1 mps 749 mmHg 47%
    20:00 +24°C° 0 mm 1 mps 749 mmHg 53%
    21:00 +23°C° 0 mm 1 mps 749 mmHg 54%
    22:00 +22°C° 0 mm 1 mps 749 mmHg 55%
    23:00 +21°C° 0 mm 1 mps 749 mmHg 56%

    Tomorrow, 17 July, Tuesday

    Time Temperature Precipitation Wind Pressure Humidity
    00:00 +21°C° 0 mm 1 mps 750 mmHg 56%
    01:00 +21°C° 0 mm 1 mps 750 mmHg 57%
    02:00 +20°C° 0 mm 1 mps 750 mmHg 57%
    03:00 +21°C° 0 mm 1 mps 750 mmHg 58%
    04:00 +21°C° 0 mm 1 mps 751 mmHg 60%
    05:00 +21°C° 0 mm 1 mps 751 mmHg 61%
    06:00 +21°C° 0 mm 2 mps 751 mmHg 59%
    07:00 +23°C° 0 mm 2 mps 751 mmHg 56%
    08:00 +24°C° 0 mm 3 mps 752 mmHg 54%
    09:00 +25°C° 0 mm 3 mps 752 mmHg 50%
    10:00 +27°C° 0 mm 3 mps 752 mmHg 46%
    11:00 +28°C° 0 mm 3 mps 752 mmHg 41%
    12:00 +28°C° 0 mm 4 mps 752 mmHg 40%
    13:00 +28°C° 0 mm 4 mps 752 mmHg 38%
    14:00 +28°C° 0 mm 4 mps 752 mmHg 37%
    15:00 +27°C° 0 mm 4 mps 751 mmHg 38%
    16:00 +27°C° 0 mm 5 mps 751 mmHg 39%
    17:00 +26°C° 0 mm 5 mps 751 mmHg 40%
    18:00 +23°C° 0 mm 4 mps 752 mmHg 46%
    19:00 +22°C° 0 mm 4 mps 752 mmHg 52%
    20:00 +20°C° 0 mm 3 mps 752 mmHg 58%
    21:00 +19°C° 0 mm 3 mps 752 mmHg 62%
    22:00 +18°C° 0 mm 3 mps 752 mmHg 66%
    23:00 +17°C° 0 mm 3 mps 752 mmHg 70%

    Day after tomorrow, 18 July, Wednesday

    Time Temperature Precipitation Wind Pressure Humidity
    00:00 +16°C° 0 mm 3 mps 752 mmHg 74%
    01:00 +14°C° 0 mm 3 mps 752 mmHg 77%
    02:00 +15°C° 0 mm 2 mps 752 mmHg 80%
    03:00 +14°C° 0 mm 3 mps 752 mmHg 77%
    04:00 +14°C° 0 mm 3 mps 752 mmHg 74%
    05:00 +16°C° 0 mm 3 mps 752 mmHg 71%
    06:00 +17°C° 0 mm 3 mps 752 mmHg 66%
    07:00 +19°C° 0 mm 3 mps 752 mmHg 60%
    08:00 +21°C° 0 mm 4 mps 752 mmHg 54%
    09:00 +22°C° 0 mm 4 mps 752 mmHg 49%
    10:00 +23°C° 0 mm 4 mps 752 mmHg 44%
    11:00 +25°C° 0 mm 4 mps 752 mmHg 40%
    12:00 +26°C° 0 mm 4 mps 751 mmHg 38%
    13:00 +26°C° 0 mm 4 mps 751 mmHg 37%
    14:00 +27°C° 0 mm 4 mps 751 mmHg 35%
    15:00 +27°C° 0 mm 4 mps 751 mmHg 36%
    16:00 +27°C° 0 mm 4 mps 750 mmHg 38%
    17:00 +27°C° 0 mm 4 mps 750 mmHg 39%
    18:00 +25°C° 0 mm 4 mps 750 mmHg 45%
    19:00 +22°C° 0 mm 3 mps 750 mmHg 51%
    20:00 +21°C° 0 mm 3 mps 750 mmHg 57%
    21:00 +20°C° 0 mm 3 mps 750 mmHg 61%
    22:00 +18°C° 0 mm 3 mps 750 mmHg 65%
    23:00 +17°C° 0 mm 3 mps 751 mmHg 69%

    19 July, Thursday

    Time Temperature Precipitation Wind Pressure Humidity
    00:00 +17°C° 0 mm 2 mps 751 mmHg 71%
    01:00 +16°C° 0 mm 2 mps 751 mmHg 73%
    02:00 +16°C° 0 mm 2 mps 750 mmHg 75%
    03:00 +17°C° 0 mm 2 mps 751 mmHg 72%
    04:00 +17°C° 0 mm 3 mps 751 mmHg 70%
    05:00 +18°C° 0 mm 3 mps 751 mmHg 67%
    06:00 +20°C° 0 mm 3 mps 751 mmHg 61%
    07:00 +22°C° 0 mm 3 mps 751 mmHg 55%
    08:00 +25°C° 0 mm 4 mps 751 mmHg 49%
    09:00 +26°C° 0 mm 4 mps 750 mmHg 45%
    10:00 +27°C° 0 mm 4 mps 750 mmHg 42%
    11:00 +29°C° 0 mm 4 mps 750 mmHg 39%
    12:00 +29°C° 0 mm 4 mps 750 mmHg 38%
    13:00 +30°C° 0 mm 4 mps 750 mmHg 37%
    14:00 +30°C° 0 mm 4 mps 749 mmHg 36%
    15:00 +30°C° 0 mm 4 mps 749 mmHg 37%
    16:00 +30°C° 0 mm 4 mps 749 mmHg 38%
    17:00 +30°C° 0 mm 4 mps 749 mmHg 40%
    18:00 +28°C° 0 mm 3 mps 749 mmHg 45%
    19:00 +27°C° 0 mm 3 mps 749 mmHg 50%
    20:00 +25°C° 0 mm 3 mps 749 mmHg 55%
    21:00 +24°C° 0 mm 3 mps 749 mmHg 55%
    22:00 +22°C° 0 mm 3 mps 749 mmHg 55%
    23:00 +21°C° 0 mm 3 mps 749 mmHg 55%

    20 July, Friday

    Time Temperature Precipitation Wind Pressure Humidity
    00:00 +21°C° 0 mm 3 mps 749 mmHg 58%
    01:00 +20°C° 0 mm 2 mps 749 mmHg 61%
    02:00 +19°C° 0 mm 2 mps 749 mmHg 63%
    03:00 +20°C° 0 mm 2 mps 749 mmHg 64%
    04:00 +20°C° 0 mm 2 mps 749 mmHg 64%
    05:00 +21°C° 0 mm 2 mps 749 mmHg 65%
    06:00 +24°C° 0 mm 3 mps 749 mmHg 58%
    07:00 +26°C° 0 mm 4 mps 749 mmHg 52%
    08:00 +28°C° 0 mm 4 mps 749 mmHg 45%
    09:00 +29°C° 0 mm 5 mps 748 mmHg 42%
    10:00 +29°C° 0 mm 5 mps 748 mmHg 40%
    11:00 +30°C° 0 mm 5 mps 748 mmHg 37%
    12:00 +30°C° 0 mm 5 mps 748 mmHg 38%
    13:00 +30°C° 0 mm 4 mps 747 mmHg 39%
    14:00 +30°C° 0 mm 4 mps 747 mmHg 40%
    15:00 +30°C° 0 mm 4 mps 747 mmHg 41%
    16:00 +30°C° 0 mm 4 mps 746 mmHg 41%
    17:00 +30°C° 0 mm 4 mps 746 mmHg 42%
    18:00 +28°C° 0 mm 3 mps 746 mmHg 46%
    19:00 +27°C° 0 mm 3 mps 746 mmHg 50%
    20:00 +26°C° 0 mm 2 mps 746 mmHg 55%
    21:00 +25°C° 0 mm 2 mps 746 mmHg 57%
    22:00 +24°C° 0 mm 2 mps 745 mmHg 60%
    23:00 +22°C° 0 mm 3 mps 745 mmHg 63%

    21 July, Saturday

    Time Temperature Precipitation Wind Pressure Humidity
    00:00 +21°C° 0 mm 3 mps 745 mmHg 67%
    01:00 +21°C° 0 mm 2 mps 745 mmHg 71%
    02:00 +20°C° 0 mm 2 mps 745 mmHg 75%
    03:00 +20°C° 0 mm 3 mps 745 mmHg 75%
    04:00 +21°C° 0 mm 3 mps 745 mmHg 75%
    05:00 +21°C° 0 mm 3 mps 745 mmHg 74%
    06:00 +24°C° 0 mm 3 mps 744 mmHg 70%
    07:00 +25°C° 0 mm 4 mps 744 mmHg 66%
    08:00 +26°C° 0 mm 4 mps 744 mmHg 62%
    09:00 +27°C° 0.1 mm 4 mps 744 mmHg 59%
    10:00 +28°C° 0.1 mm 4 mps 743 mmHg 57%
    11:00 +28°C° 0.1 mm 4 mps 743 mmHg 55%
    12:00 +28°C° 0.8 mm 4 mps 743 mmHg 60%
    13:00 +27°C° 0.8 mm 4 mps 743 mmHg 66%
    14:00 +27°C° 0.8 mm 3 mps 742 mmHg 71%
    15:00 +27°C° 0.7 mm 3 mps 742 mmHg 72%
    16:00 +27°C° 0.7 mm 3 mps 742 mmHg 74%
    17:00 +27°C° 0.7 mm 3 mps 742 mmHg 75%
    18:00 +26°C° 0.4 mm 3 mps 741 mmHg 78%
    19:00 +25°C° 0.4 mm 3 mps 741 mmHg 82%
    20:00 +24°C° 0.4 mm 2 mps 741 mmHg 85%
    21:00 +22°C° 0.3 mm 3 mps 741 mmHg 87%
    22:00 +22°C° 0.3 mm 3 mps 741 mmHg 89%
    23:00 +21°C° 0.3 mm 3 mps 741 mmHg 91%
    Show more